GW4807 Weather Reports


Display with metric or nautical units.
time (UTC)temp
F
wind
direction
speed
MPH
gust
MPH
rain 1hr
in
rain 24hr
in
rain mn
in
humidity
%
barometer
mb
20260901030042 74 123 0.0 0.0 0.00 0.00 0.00 75 1011.5
20260901025537 75 124 0.0 0.0 0.00 0.00 0.00 74 1011.3
20260901025036 75 124 0.0 0.0 0.00 0.00 0.00 74 1011.3
20260901024532 75 124 0.0 0.0 0.00 0.00 0.00 73 1011.2
20260901024030 75 125 0.0 0.0 0.00 0.00 0.00 73 1011.3
20260901023524 76 125 0.0 0.0 0.00 0.00 0.00 73 1011.1
20260901023020 76 125 0.0 0.0 0.00 0.00 0.00 72 1011.0
20260901022515 76 124 0.0 0.0 0.00 0.00 0.00 72 1011.0
20260901022010 76 124 0.0 0.0 0.00 0.00 0.00 71 1010.9
20260901021505 77 124 0.0 0.0 0.00 0.00 0.00 70 1010.9
20260901021000 77 124 0.0 0.0 0.00 0.00 0.00 70 1010.8
20260901020455 77 126 0.0 0.0 0.00 0.00 0.00 70 1010.8
20260901015954 77 127 0.0 0.0 0.00 0.00 0.00 69 1010.8
20260901015451 78 126 0.0 0.0 0.00 0.00 0.00 69 1010.6
20260901014950 78 127 0.0 0.0 0.00 0.00 0.00 68 1010.6
20260901014447 78 127 0.0 0.0 0.00 0.00 0.00 68 1010.5
20260901013943 78 129 0.0 0.0 0.00 0.00 0.00 68 1010.5
20260901013438 79 127 0.0 0.0 0.00 0.00 0.00 67 1010.4
20260901012934 79 128 0.0 0.0 0.00 0.00 0.00 66 1010.6
20260901012433 79 127 0.0 0.0 0.00 0.00 0.00 65 1010.3
20260901011929 80 129 0.0 0.0 0.00 0.00 0.00 65 1010.4
20260901011425 80 127 0.0 0.0 0.00 0.00 0.00 64 1010.0
20260901010923 81 129 0.0 0.0 0.00 0.00 0.00 63 1010.3
20260901010418 81 126 0.0 0.0 0.00 0.00 0.00 62 1010.3
20260901005917 82 129 0.0 0.0 0.00 0.00 0.00 62 1010.3
20260901005412 82 127 0.0 0.0 0.00 0.00 0.00 61 1010.2
20260901004908 83 129 0.0 0.0 0.00 0.00 0.00 60 1010.1
20260901004407 84 133 0.0 0.0 0.00 0.00 0.00 59 1010.0
20260901003902 84 131 0.0 0.0 0.00 0.00 0.00 58 1010.1
20260901003357 85 129 0.0 0.0 0.00 0.00 0.00 57 1010.0
20260901002855 86 130 0.0 0.0 0.00 0.00 0.00 56 1010.0
20260901002354 86 137 1.0 1.0 0.00 0.00 0.00 55 1009.7
20260901001849 87 137 1.0 1.0 0.00 0.00 0.00 54 1010.0
20260901001345 88 139 1.0 1.0 0.00 0.00 0.00 52 1009.9
20260901000840 89 128 0.0 0.0 0.00 0.00 0.00 51 1009.8
20260901000330 90 138 1.0 1.0 0.00 0.00 0.00 49 1009.7
20260831235828 91 130 0.0 0.0 0.00 0.00 0.00 46 1009.7
20260831235324 93 141 1.0 2.0 0.00 0.00 0.00 45 1009.7
20260831234824 94 144 1.0 1.0 0.00 0.00 0.00 43 1009.9
20260831234319 95 114 0.0 0.0 0.00 0.00 0.00 40 1009.7
20260831233815 96 83 1.0 2.0 0.00 0.00 0.00 39 1009.9
20260831233310 97 129 0.0 1.0 0.00 0.00 0.00 38 1009.9
20260831232805 97 126 0.0 1.0 0.00 0.00 0.00 38 1009.9
20260831232305 98 310 2.0 2.0 0.00 0.00 0.00 37 1009.9
20260831231757 99 89 1.0 1.0 0.00 0.00 0.00 37 1009.9
20260831231253 100 144 1.0 2.0 0.00 0.00 0.00 37 1010.1
20260831230748 100 122 1.0 1.0 0.00 0.00 0.00 36 1009.8
20260831230243 100 136 0.0 1.0 0.00 0.00 0.00 37 1009.8
20260831225742 100 108 1.0 1.0 0.00 0.00 0.00 36 1009.9
20260831225238 100 118 1.0 1.0 0.00 0.00 0.00 36 1009.7
20260831224732 101 134 1.0 1.0 0.00 0.00 0.00 36 1009.7
20260831224228 101 130 1.0 1.0 0.00 0.00 0.00 36 1010.1
20260831223723 102 266 3.0 5.0 0.00 0.00 0.00 36 1009.8
20260831223220 101 168 2.0 3.0 0.00 0.00 0.00 35 1009.7
20260831222715 101 136 1.0 1.0 0.00 0.00 0.00 35 1009.9
20260831222211 99 140 1.0 1.0 0.00 0.00 0.00 37 1009.8
20260831221706 101 92 2.0 2.0 0.00 0.00 0.00 36 1010.2
20260831221201 101 139 1.0 1.0 0.00 0.00 0.00 36 1009.9
20260831220656 102 128 0.0 0.0 0.00 0.00 0.00 35 1010.2
20260831220151 101 163 1.0 2.0 0.00 0.00 0.00 34 1010.0
20260831215641 102 121 2.0 2.0 0.00 0.00 0.00 34 1010.2
20260831215136 102 18 2.0 2.0 0.00 0.00 0.00 35 1009.9
20260831214633 101 135 2.0 2.0 0.00 0.00 0.00 35 1009.9
20260831214130 100 170 2.0 2.0 0.00 0.00 0.00 34 1010.0
20260831213626 100 147 4.0 5.0 0.00 0.00 0.00 35 1010.0
20260831213120 99 160 1.0 1.0 0.00 0.00 0.00 36 1009.9
20260831212616 98 121 1.0 1.0 0.00 0.00 0.00 37 1010.0
20260831212112 97 182 2.0 2.0 0.00 0.00 0.00 38 1010.2
20260831211606 99 322 3.0 6.0 0.00 0.00 0.00 36 1010.2
20260831211105 102 96 2.0 2.0 0.00 0.00 0.00 35 1010.1
20260831210600 101 178 3.0 3.0 0.00 0.00 0.00 35 1010.4
20260831210057 101 169 2.0 2.0 0.00 0.00 0.00 35 1010.2
20260831205556 101 144 2.0 2.0 0.00 0.00 0.00 35 1010.4
20260831205052 100 136 0.0 1.0 0.00 0.00 0.00 36 1010.4
20260831204547 102 194 3.0 3.0 0.00 0.00 0.00 33 1010.5
20260831204046 101 143 1.0 1.0 0.00 0.00 0.00 34 1010.2
20260831203541 101 132 1.0 2.0 0.00 0.00 0.00 34 1010.5
20260831203040 102 137 0.0 1.0 0.00 0.00 0.00 35 1010.5
20260831202539 103 182 3.0 3.0 0.00 0.00 0.00 33 1010.6
20260831202038 104 179 1.0 2.0 0.00 0.00 0.00 32 1010.7
20260831201537 104 119 0.0 0.0 0.00 0.00 0.00 33 1010.7
20260831201033 103 75 2.0 2.0 0.00 0.00 0.00 35 1010.8
20260831200523 104 345 2.0 2.0 0.00 0.00 0.00 33 1010.8
20260831200018 101 129 0.0 0.0 0.00 0.00 0.00 36 1010.7
20260831195513 100 111 3.0 3.0 0.00 0.00 0.00 36 1010.8
20260831195013 99 136 1.0 2.0 0.00 0.00 0.00 37 1011.0
20260831194508 98 138 1.0 1.0 0.00 0.00 0.00 37 1011.0
20260831194003 100 136 1.0 1.0 0.00 0.00 0.00 36 1011.0
20260831193458 100 145 1.0 1.0 0.00 0.00 0.00 36 1010.9
20260831192953 100 160 4.0 8.0 0.00 0.00 0.00 36 1011.0
20260831192448 101 208 5.0 7.0 0.00 0.00 0.00 36 1011.1
20260831191942 101 42 4.0 6.0 0.00 0.00 0.00 35 1011.2
20260831191439 101 305 2.0 2.0 0.00 0.00 0.00 35 1011.4
20260831190935 101 138 1.0 1.0 0.00 0.00 0.00 37 1011.3
20260831190429 100 144 0.0 1.0 0.00 0.00 0.00 37 1011.4
20260831185928 99 146 1.0 1.0 0.00 0.00 0.00 38 1011.3
20260831185424 98 297 3.0 3.0 0.00 0.00 0.00 37 1011.7
20260831184919 98 136 0.0 1.0 0.00 0.00 0.00 38 1011.9
20260831184418 99 233 4.0 5.0 0.00 0.00 0.00 36 1011.5
20260831183914 98 161 1.0 1.0 0.00 0.00 0.00 40 1011.5
20260831183413 97 174 2.0 3.0 0.00 0.00 0.00 39 1011.8
20260831182908 97 133 1.0 2.0 0.00 0.00 0.00 40 1012.0
20260831182403 96 182 1.0 2.0 0.00 0.00 0.00 41 1012.1
20260831181858 97 164 1.0 2.0 0.00 0.00 0.00 41 1012.0
20260831181353 98 295 3.0 3.0 0.00 0.00 0.00 39 1011.9
20260831180848 98 139 1.0 1.0 0.00 0.00 0.00 40 1012.1
20260831180343 97 242 2.0 2.0 0.00 0.00 0.00 41 1012.1
20260831175842 96 179 3.0 5.0 0.00 0.00 0.00 42 1012.2
20260831175338 96 122 0.0 0.0 0.00 0.00 0.00 43 1012.2
20260831174834 95 309 1.0 3.0 0.00 0.00 0.00 43 1012.4
20260831174329 95 176 2.0 3.0 0.00 0.00 0.00 44 1012.4
20260831173828 95 309 5.0 6.0 0.00 0.00 0.00 44 1012.4
20260831173323 95 302 3.0 5.0 0.00 0.00 0.00 48 1012.4
20260831172818 95 22 2.0 3.0 0.00 0.00 0.00 46 1012.4
20260831172314 94 145 1.0 1.0 0.00 0.00 0.00 47 1012.4
20260831171813 93 135 0.0 1.0 0.00 0.00 0.00 48 1012.4
20260831171310 93 212 4.0 5.0 0.00 0.00 0.00 49 1012.5
20260831170806 93 126 0.0 1.0 0.00 0.00 0.00 50 1012.5
20260831170302 93 133 0.0 1.0 0.00 0.00 0.00 49 1012.5
20260831165759 93 198 2.0 3.0 0.00 0.00 0.00 50 1012.7
20260831165255 92 169 2.0 2.0 0.00 0.00 0.00 51 1012.8
20260831164750 92 318 6.0 7.0 0.00 0.00 0.00 51 1012.8
20260831164246 92 154 4.0 6.0 0.00 0.00 0.00 51 1012.7
20260831163742 91 273 3.0 3.0 0.00 0.00 0.00 51 1013.1
20260831163237 91 290 4.0 6.0 0.00 0.00 0.00 52 1012.9
20260831162735 91 187 3.0 5.0 0.00 0.00 0.00 53 1013.1
20260831162230 91 204 4.0 5.0 0.00 0.00 0.00 53 1012.8
20260831161724 90 304 4.0 5.0 0.00 0.00 0.00 55 1013.0
20260831161221 89 169 2.0 3.0 0.00 0.00 0.00 55 1012.8
20260831160720 89 124 1.0 2.0 0.00 0.00 0.00 55 1012.9
20260831160210 89 151 1.0 1.0 0.00 0.00 0.00 56 1013.0
20260831155709 89 131 1.0 1.0 0.00 0.00 0.00 56 1013.0
20260831155204 89 207 5.0 7.0 0.00 0.00 0.00 56 1013.0
20260831154655 88 129 1.0 2.0 0.00 0.00 0.00 57 1013.0
20260831154150 88 100 1.0 1.0 0.00 0.00 0.00 58 1013.0
20260831153649 88 162 3.0 5.0 0.00 0.00 0.00 58 1013.0
20260831153146 87 314 5.0 6.0 0.00 0.00 0.00 58 1012.9
20260831152641 87 222 5.0 7.0 0.00 0.00 0.00 59 1013.2
20260831152137 86 144 3.0 5.0 0.00 0.00 0.00 60 1013.0
20260831151637 86 259 1.0 2.0 0.00 0.00 0.00 60 1013.1
20260831151131 86 267 2.0 3.0 0.00 0.00 0.00 60 1012.8
20260831150626 85 296 6.0 8.0 0.00 0.00 0.00 61 1013.1
20260831150121 85 199 3.0 6.0 0.00 0.00 0.00 62 1013.1
20260831145615 84 199 3.0 3.0 0.00 0.00 0.00 63 1013.0
20260831145112 84 148 1.0 2.0 0.00 0.00 0.00 63 1012.9
20260831144607 83 29 2.0 2.0 0.00 0.00 0.00 64 1013.0
20260831144102 82 46 1.0 2.0 0.00 0.00 0.00 66 1013.2
20260831143556 82 181 2.0 2.0 0.00 0.00 0.00 67 1012.8
20260831143052 81 116 0.0 0.0 0.00 0.00 0.00 68 1012.9
20260831142549 80 135 1.0 1.0 0.00 0.00 0.00 70 1013.1
20260831142044 80 133 1.0 2.0 0.00 0.00 0.00 70 1013.1
20260831141543 79 166 2.0 2.0 0.00 0.00 0.00 71 1013.1
20260831141038 79 193 2.0 2.0 0.00 0.00 0.00 71 1013.1
20260831140537 78 187 1.0 2.0 0.00 0.00 0.00 72 1013.1
20260831140037 78 127 0.0 1.0 0.00 0.00 0.00 72 1013.3
20260831135535 77 142 0.0 0.0 0.00 0.00 0.00 73 1013.1
20260831135031 77 199 1.0 2.0 0.00 0.00 0.00 72 1013.0
20260831134527 77 140 1.0 1.0 0.00 0.00 0.00 72 1012.8
20260831134026 77 125 0.0 0.0 0.00 0.00 0.00 72 1012.9
20260831133516 77 169 2.0 2.0 0.00 0.00 0.00 71 1013.0
20260831133010 78 148 1.0 2.0 0.00 0.00 0.00 70 1013.0
20260831132507 77 129 0.0 1.0 0.00 0.00 0.00 71 1012.7
20260831132005 76 120 0.0 0.0 0.00 0.00 0.00 74 1012.8
20260831131500 75 125 1.0 1.0 0.00 0.00 0.00 76 1012.6
20260831130956 74 118 0.0 0.0 0.00 0.00 0.00 79 1012.8
20260831130451 73 119 0.0 0.0 0.00 0.00 0.00 86 1012.9
20260831125950 71 126 0.0 0.0 0.00 0.00 0.00 87 1012.6
20260831125445 69 113 0.0 0.0 0.00 0.00 0.00 93 1012.7
20260831124941 68 122 0.0 0.0 0.00 0.00 0.00 96 1012.7
20260831124437 66 121 0.0 0.0 0.00 0.00 0.00 98 1012.7
20260831123933 65 121 0.0 0.0 0.00 0.00 0.00 99 1012.4
20260831123431 64 119 0.0 0.0 0.00 0.00 0.00 99 1012.2
20260831122926 63 117 0.0 0.0 0.00 0.00 0.00 99 1012.3
20260831122421 63 123 0.0 0.0 0.00 0.00 0.00 99 1012.2
20260831121916 63 123 0.0 0.0 0.00 0.00 0.00 99 1011.9
20260831121412 62 122 0.0 0.0 0.00 0.00 0.00 99 1011.8
20260831120908 62 123 0.0 0.0 0.00 0.00 0.00 99 1012.0
20260831120407 62 123 0.0 0.0 0.00 0.00 0.00 99 1011.9
20260831115902 62 123 0.0 0.0 0.00 0.00 0.00 99 1011.9
20260831115359 62 122 0.0 0.0 0.00 0.00 0.00 99 1011.8
20260831114858 62 122 0.0 0.0 0.00 0.00 0.00 99 1011.5
20260831114357 62 122 0.0 0.0 0.00 0.00 0.00 99 1011.5
20260831113853 62 122 0.0 0.0 0.00 0.00 0.00 99 1011.4
20260831113348 62 122 0.0 0.0 0.00 0.00 0.00 99 1011.5
20260831112847 62 123 0.0 0.0 0.00 0.00 0.00 98 1011.4
20260831112342 62 123 0.0 0.0 0.00 0.00 0.00 98 1011.5
20260831111837 62 123 0.0 0.0 0.00 0.00 0.00 98 1011.1
20260831111334 62 123 0.0 0.0 0.00 0.00 0.00 98 1011.3
20260831110830 62 126 0.0 0.0 0.00 0.00 0.00 98 1011.2
20260831110329 62 125 0.0 0.0 0.00 0.00 0.00 98 1011.1
20260831105827 62 122 0.0 0.0 0.00 0.00 0.00 98 1011.1
20260831105324 62 122 0.0 0.0 0.00 0.00 0.00 98 1011.3
20260831104825 62 124 0.0 0.0 0.00 0.00 0.00 97 1011.0
20260831104321 62 123 0.0 0.0 0.00 0.00 0.00 97 1011.0
20260831103821 62 122 0.0 0.0 0.00 0.00 0.00 97 1011.1
20260831103316 62 123 0.0 0.0 0.00 0.00 0.00 97 1011.2
20260831102811 62 123 0.0 0.0 0.00 0.00 0.00 96 1011.1
20260831102306 63 123 0.0 0.0 0.00 0.00 0.00 96 1011.2
20260831101801 63 123 0.0 0.0 0.00 0.00 0.00 96 1011.1
20260831101257 63 123 0.0 0.0 0.00 0.00 0.00 96 1011.3
20260831100753 63 123 0.0 0.0 0.00 0.00 0.00 95 1011.0
20260831100249 63 123 0.0 0.0 0.00 0.00 0.00 95 1011.3
20260831095747 63 123 0.0 0.0 0.00 0.00 0.00 95 1011.2
20260831095242 63 123 0.0 0.0 0.00 0.00 0.00 95 1011.3
20260831094737 63 123 0.0 0.0 0.00 0.00 0.00 95 1011.0
20260831094233 64 123 0.0 0.0 0.00 0.00 0.00 95 1011.1
20260831093729 64 123 0.0 0.0 0.00 0.00 0.00 95 1011.2
20260831093224 64 123 0.0 0.0 0.00 0.00 0.00 94 1011.2
20260831092720 64 123 0.0 0.0 0.00 0.00 0.00 94 1011.2
20260831092216 64 125 0.0 0.0 0.00 0.00 0.00 94 1011.3
20260831091715 64 125 0.0 0.0 0.00 0.00 0.00 94 1011.1
20260831091211 64 125 0.0 0.0 0.00 0.00 0.00 94 1011.1
20260831090711 64 125 0.0 0.0 0.00 0.00 0.00 94 1011.0
20260831090208 64 125 0.0 0.0 0.00 0.00 0.00 93 1011.1
20260831085703 64 125 0.0 0.0 0.00 0.00 0.00 93 1011.4
20260831085158 64 125 0.0 0.0 0.00 0.00 0.00 93 1011.1
20260831084653 65 122 0.0 0.0 0.00 0.00 0.00 92 1011.3
20260831084149 65 122 0.0 0.0 0.00 0.00 0.00 92 1011.3
20260831083645 65 122 0.0 0.0 0.00 0.00 0.00 92 1011.1
20260831083140 65 123 0.0 0.0 0.00 0.00 0.00 92 1011.0
20260831082638 65 123 0.0 0.0 0.00 0.00 0.00 92 1011.0
20260831082134 65 124 0.0 0.0 0.00 0.00 0.00 91 1011.2
20260831081630 65 125 0.0 0.0 0.00 0.00 0.00 91 1010.7
20260831081125 66 126 0.0 0.0 0.00 0.00 0.00 91 1010.7
20260831080621 66 124 0.0 0.0 0.00 0.00 0.00 91 1010.8
20260831080115 66 123 0.0 0.0 0.00 0.00 0.00 91 1010.8
20260831075611 66 122 0.0 0.0 0.00 0.00 0.00 90 1010.8
20260831075107 66 123 0.0 0.0 0.00 0.00 0.00 90 1010.6
20260831074606 66 124 0.0 0.0 0.00 0.00 0.00 90 1011.0
20260831074100 66 124 0.0 0.0 0.00 0.00 0.00 90 1010.7
20260831073555 66 126 0.0 0.0 0.00 0.00 0.00 90 1010.9
20260831073055 66 125 0.0 0.0 0.00 0.00 0.00 90 1010.7
20260831072550 67 125 0.0 0.0 0.00 0.00 0.00 90 1010.8
20260831072047 67 128 0.0 0.0 0.00 0.00 0.00 90 1011.0
20260831071545 67 125 0.0 0.0 0.00 0.00 0.00 89 1010.9
20260831071041 67 122 0.0 0.0 0.00 0.00 0.00 89 1010.8
20260831070539 67 125 0.0 0.0 0.00 0.00 0.00 89 1011.0
20260831070035 67 128 0.0 0.0 0.00 0.00 0.00 89 1011.1
20260831065533 67 129 0.0 0.0 0.00 0.00 0.00 89 1011.2
20260831065032 67 126 0.0 0.0 0.00 0.00 0.00 88 1011.2
20260831064528 68 126 0.0 0.0 0.00 0.00 0.00 88 1011.2
20260831064024 68 129 0.0 0.0 0.00 0.00 0.00 88 1011.1
20260831063520 68 126 0.0 0.0 0.00 0.00 0.00 88 1011.2
20260831063019 68 125 0.0 0.0 0.00 0.00 0.00 87 1011.1
20260831062514 68 126 0.0 0.0 0.00 0.00 0.00 87 1011.2
20260831062014 68 124 0.0 0.0 0.00 0.00 0.00 86 1011.0
20260831061512 69 123 0.0 0.0 0.00 0.00 0.00 85 1011.2
20260831061009 69 125 0.0 0.0 0.00 0.00 0.00 85 1011.1
20260831060508 69 128 0.0 0.0 0.00 0.00 0.00 85 1011.4
20260831060004 69 128 0.0 0.0 0.00 0.00 0.00 85 1011.3
20260831055458 69 133 0.0 0.0 0.00 0.00 0.00 85 1011.2
20260831054954 69 132 0.0 0.0 0.00 0.00 0.00 85 1011.0
20260831054454 70 128 0.0 0.0 0.00 0.00 0.00 84 1011.2
20260831053953 70 128 0.0 0.0 0.00 0.00 0.00 84 1011.2
20260831053451 70 127 0.0 0.0 0.00 0.00 0.00 83 1010.9
20260831052946 70 127 0.0 0.0 0.00 0.00 0.00 83 1011.1
20260831052445 71 127 0.0 0.0 0.00 0.00 0.00 83 1011.0
20260831051944 71 127 0.0 0.0 0.00 0.00 0.00 83 1011.1
20260831051443 71 135 0.0 0.0 0.00 0.00 0.00 82 1011.1
20260831050937 71 128 0.0 0.0 0.00 0.00 0.00 82 1010.8
20260831050437 71 130 0.0 0.0 0.00 0.00 0.00 82 1010.9
20260831045936 71 128 0.0 0.0 0.00 0.00 0.00 82 1010.8
20260831045435 71 131 0.0 0.0 0.00 0.00 0.00 81 1010.8
20260831044930 71 138 1.0 1.0 0.00 0.00 0.00 81 1010.8
20260831044426 72 129 1.0 1.0 0.00 0.00 0.00 81 1010.8
20260831043921 72 126 0.0 0.0 0.00 0.00 0.00 80 1010.7
20260831043421 72 124 0.0 0.0 0.00 0.00 0.00 80 1010.6
20260831042916 72 132 0.0 0.0 0.00 0.00 0.00 79 1010.4
20260831042415 73 127 0.0 0.0 0.00 0.00 0.00 78 1010.7
20260831041905 73 140 0.0 1.0 0.00 0.00 0.00 78 1010.6
20260831041404 73 125 0.0 0.0 0.00 0.00 0.00 78 1010.6
20260831040859 73 125 0.0 0.0 0.00 0.00 0.00 78 1010.6
20260831040354 73 102 1.0 1.0 0.00 0.00 0.00 77 1010.6
20260831035852 74 138 1.0 1.0 0.00 0.00 0.00 77 1010.4
20260831035351 74 135 1.0 1.0 0.00 0.00 0.00 76 1010.6
20260831034846 74 133 0.0 0.0 0.00 0.00 0.00 75 1010.4
20260831034341 74 131 0.0 1.0 0.00 0.00 0.00 75 1010.3
20260831033837 75 128 0.0 0.0 0.00 0.00 0.00 74 1010.6
20260831033336 75 122 0.0 0.0 0.00 0.00 0.00 73 1010.4
20260831032832 75 136 0.0 0.0 0.00 0.00 0.00 73 1010.3
20260831032326 75 130 0.0 0.0 0.00 0.00 0.00 72 1010.3
20260831031822 76 130 0.0 0.0 0.00 0.00 0.00 72 1010.0
20260831031321 76 137 0.0 1.0 0.00 0.00 0.00 71 1010.3
20260831030816 76 136 0.0 1.0 0.00 0.00 0.00 70 1010.1